• In Denmark
  • List of Countries
  • For 7 days
  • Water Temperature
  • Satellite Maps
  • Weather Map
  • Weather Widgets
  • user-avatar
    Login

    Hourly Weather Odienne

    Today, 20 February, Tuesday

    Time Temperature Precipitation Wind Pressure Humidity
    00:00 +30°C° 0.3 mm 2 mps 720 mmHg 50%
    01:00 +29°C° 0.3 mm 1 mps 720 mmHg 55%
    02:00 +29°C° 0.3 mm 1 mps 720 mmHg 60%
    03:00 +28°C° 0 mm 1 mps 720 mmHg 61%
    04:00 +28°C° 0 mm 1 mps 720 mmHg 63%
    05:00 +28°C° 0 mm 2 mps 721 mmHg 65%
    06:00 +29°C° 0 mm 2 mps 721 mmHg 62%
    07:00 +29°C° 0 mm 2 mps 721 mmHg 59%
    08:00 +30°C° 0 mm 2 mps 722 mmHg 56%
    09:00 +34°C° 0 mm 2 mps 722 mmHg 48%
    10:00 +36°C° 0 mm 2 mps 722 mmHg 40%
    11:00 +39°C° 0 mm 2 mps 722 mmHg 32%
    12:00 +39°C° 0 mm 1 mps 721 mmHg 30%
    13:00 +39°C° 0 mm 1 mps 721 mmHg 29%
    14:00 +39°C° 0 mm 1 mps 720 mmHg 28%
    15:00 +39°C° 0 mm 1 mps 720 mmHg 28%
    16:00 +37°C° 0 mm 1 mps 720 mmHg 29%
    17:00 +38°C° 0 mm 2 mps 720 mmHg 29%
    18:00 +36°C° 0 mm 2 mps 720 mmHg 34%
    19:00 +35°C° 0 mm 2 mps 721 mmHg 38%
    20:00 +32°C° 0 mm 2 mps 721 mmHg 43%
    21:00 +31°C° 0 mm 1 mps 721 mmHg 46%
    22:00 +31°C° 0 mm 1 mps 721 mmHg 49%
    23:00 +30°C° 0 mm 1 mps 721 mmHg 52%

    Tomorrow, 21 February, Wednesday

    Time Temperature Precipitation Wind Pressure Humidity
    00:00 +29°C° 0 mm 1 mps 721 mmHg 54%
    01:00 +29°C° 0 mm 1 mps 720 mmHg 56%
    02:00 +29°C° 0 mm 1 mps 720 mmHg 58%
    03:00 +28°C° 0 mm 1 mps 720 mmHg 60%
    04:00 +28°C° 0 mm 1 mps 720 mmHg 62%
    05:00 +27°C° 0 mm 1 mps 720 mmHg 64%
    06:00 +28°C° 0 mm 2 mps 721 mmHg 60%
    07:00 +30°C° 0 mm 2 mps 721 mmHg 57%
    08:00 +31°C° 0 mm 3 mps 722 mmHg 53%
    09:00 +34°C° 0 mm 3 mps 722 mmHg 45%
    10:00 +36°C° 0 mm 3 mps 722 mmHg 37%
    11:00 +39°C° 0 mm 3 mps 721 mmHg 29%
    12:00 +40°C° 0 mm 2 mps 721 mmHg 25%
    13:00 +41°C° 0 mm 2 mps 720 mmHg 22%
    14:00 +42°C° 0 mm 2 mps 719 mmHg 18%
    15:00 +41°C° 0 mm 2 mps 719 mmHg 20%
    16:00 +39°C° 0 mm 1 mps 718 mmHg 21%
    17:00 +37°C° 0 mm 1 mps 718 mmHg 22%
    18:00 +36°C° 0 mm 1 mps 719 mmHg 24%
    19:00 +35°C° 0 mm 1 mps 719 mmHg 26%
    20:00 +34°C° 0 mm 1 mps 720 mmHg 28%
    21:00 +34°C° 0 mm 2 mps 720 mmHg 31%
    22:00 +32°C° 0 mm 2 mps 720 mmHg 34%
    23:00 +32°C° 0 mm 2 mps 720 mmHg 38%

    Day after tomorrow, 22 February, Thursday

    Time Temperature Precipitation Wind Pressure Humidity
    00:00 +31°C° 0 mm 2 mps 720 mmHg 44%
    01:00 +30°C° 0 mm 2 mps 719 mmHg 50%
    02:00 +29°C° 0 mm 3 mps 719 mmHg 56%
    03:00 +28°C° 0 mm 2 mps 719 mmHg 60%
    04:00 +28°C° 0 mm 2 mps 719 mmHg 64%
    05:00 +27°C° 0 mm 2 mps 719 mmHg 67%
    06:00 +28°C° 0 mm 2 mps 720 mmHg 63%
    07:00 +29°C° 0 mm 2 mps 720 mmHg 59%
    08:00 +30°C° 0 mm 3 mps 721 mmHg 55%
    09:00 +32°C° 0 mm 2 mps 721 mmHg 44%
    10:00 +36°C° 0 mm 2 mps 721 mmHg 33%
    11:00 +38°C° 0 mm 2 mps 721 mmHg 21%
    12:00 +40°C° 0 mm 2 mps 720 mmHg 19%
    13:00 +41°C° 0 mm 1 mps 719 mmHg 17%
    14:00 +42°C° 0 mm 1 mps 718 mmHg 14%
    15:00 +41°C° 0 mm 1 mps 718 mmHg 15%
    16:00 +37°C° 0 mm 0 mps 718 mmHg 16%
    17:00 +35°C° 0 mm 0 mps 718 mmHg 17%
    18:00 +34°C° 0 mm 0 mps 718 mmHg 19%
    19:00 +34°C° 0 mm 1 mps 719 mmHg 21%
    20:00 +32°C° 0 mm 1 mps 719 mmHg 23%
    21:00 +32°C° 0 mm 1 mps 720 mmHg 25%
    22:00 +31°C° 0 mm 1 mps 720 mmHg 27%
    23:00 +30°C° 0 mm 1 mps 720 mmHg 29%

    23 February, Friday

    Time Temperature Precipitation Wind Pressure Humidity
    00:00 +30°C° 0 mm 2 mps 719 mmHg 36%
    01:00 +29°C° 0 mm 2 mps 719 mmHg 42%
    02:00 +28°C° 0 mm 2 mps 718 mmHg 48%
    03:00 +28°C° 0 mm 2 mps 718 mmHg 54%
    04:00 +27°C° 0 mm 2 mps 719 mmHg 60%
    05:00 +27°C° 0 mm 2 mps 719 mmHg 66%
    06:00 +28°C° 0 mm 2 mps 720 mmHg 59%
    07:00 +29°C° 0 mm 2 mps 720 mmHg 52%
    08:00 +30°C° 0 mm 3 mps 721 mmHg 45%
    09:00 +33°C° 0 mm 3 mps 721 mmHg 37%
    10:00 +36°C° 0 mm 3 mps 721 mmHg 30%
    11:00 +38°C° 0 mm 3 mps 721 mmHg 23%
    12:00 +39°C° 0 mm 3 mps 720 mmHg 21%
    13:00 +40°C° 0 mm 2 mps 719 mmHg 19%
    14:00 +41°C° 0 mm 2 mps 718 mmHg 17%
    15:00 +40°C° 0 mm 2 mps 718 mmHg 18%
    16:00 +39°C° 0 mm 2 mps 718 mmHg 19%
    17:00 +39°C° 0 mm 1 mps 718 mmHg 19%
    18:00 +36°C° 0 mm 1 mps 719 mmHg 21%
    19:00 +35°C° 0 mm 1 mps 719 mmHg 23%
    20:00 +33°C° 0 mm 1 mps 720 mmHg 25%
    21:00 +33°C° 0 mm 1 mps 720 mmHg 26%
    22:00 +33°C° 0 mm 1 mps 720 mmHg 27%
    23:00 +34°C° 0 mm 2 mps 720 mmHg 28%

    24 February, Saturday

    Time Temperature Precipitation Wind Pressure Humidity
    00:00 +32°C° 0 mm 2 mps 720 mmHg 32%
    01:00 +31°C° 0 mm 2 mps 720 mmHg 35%
    02:00 +30°C° 0 mm 3 mps 719 mmHg 38%
    03:00 +29°C° 0 mm 2 mps 720 mmHg 41%
    04:00 +29°C° 0 mm 2 mps 720 mmHg 45%
    05:00 +28°C° 0 mm 2 mps 721 mmHg 48%
    06:00 +29°C° 0 mm 2 mps 721 mmHg 44%
    07:00 +30°C° 0 mm 2 mps 722 mmHg 41%
    08:00 +31°C° 0 mm 3 mps 723 mmHg 37%
    09:00 +34°C° 0 mm 3 mps 722 mmHg 31%
    10:00 +36°C° 0 mm 3 mps 722 mmHg 26%
    11:00 +39°C° 0 mm 3 mps 722 mmHg 20%
    12:00 +40°C° 0 mm 2 mps 721 mmHg 19%
    13:00 +41°C° 0 mm 2 mps 720 mmHg 17%
    14:00 +42°C° 0 mm 1 mps 719 mmHg 16%
    15:00 +41°C° 0 mm 1 mps 719 mmHg 16%
    16:00 +40°C° 0 mm 1 mps 719 mmHg 17%
    17:00 +39°C° 0 mm 1 mps 719 mmHg 18%
    18:00 +37°C° 0 mm 1 mps 720 mmHg 19%
    19:00 +36°C° 0 mm 1 mps 720 mmHg 20%
    20:00 +35°C° 0 mm 1 mps 721 mmHg 22%
    21:00 +34°C° 0 mm 1 mps 721 mmHg 23%
    22:00 +33°C° 0 mm 1 mps 721 mmHg 24%
    23:00 +33°C° 0 mm 1 mps 721 mmHg 25%

    25 February, Sunday

    Time Temperature Precipitation Wind Pressure Humidity
    00:00 +32°C° 0 mm 1 mps 721 mmHg 26%
    01:00 +31°C° 0 mm 1 mps 721 mmHg 27%
    02:00 +30°C° 0 mm 1 mps 721 mmHg 28%
    03:00 +29°C° 0 mm 1 mps 721 mmHg 31%
    04:00 +29°C° 0 mm 1 mps 721 mmHg 35%
    05:00 +28°C° 0 mm 1 mps 721 mmHg 38%
    06:00 +29°C° 0 mm 1 mps 722 mmHg 37%
    07:00 +30°C° 0 mm 2 mps 723 mmHg 37%
    08:00 +31°C° 0 mm 2 mps 723 mmHg 37%
    09:00 +35°C° 0 mm 2 mps 723 mmHg 33%
    10:00 +37°C° 0 mm 2 mps 723 mmHg 29%
    11:00 +39°C° 0 mm 2 mps 722 mmHg 25%
    12:00 +39°C° 0 mm 2 mps 722 mmHg 24%
    13:00 +40°C° 0 mm 2 mps 721 mmHg 23%
    14:00 +41°C° 0 mm 2 mps 720 mmHg 22%
    15:00 +40°C° 0 mm 2 mps 720 mmHg 24%
    16:00 +39°C° 0 mm 2 mps 720 mmHg 26%
    17:00 +38°C° 0 mm 2 mps 720 mmHg 28%
    18:00 +37°C° 0 mm 2 mps 721 mmHg 30%
    19:00 +36°C° 0 mm 2 mps 721 mmHg 32%
    20:00 +35°C° 0 mm 2 mps 722 mmHg 34%
    21:00 +34°C° 0.2 mm 2 mps 722 mmHg 37%
    22:00 +32°C° 0.2 mm 2 mps 722 mmHg 40%
    23:00 +31°C° 0.2 mm 2 mps 722 mmHg 44%
    Show more